User: anonymous   Login
Location: Unspecified
(0.0000°N, 0.0000°E)
Time: 07:49:01
(UTC+00:00)
Language:

GGSE 2 - Orbit

View from above orbital plane
View from above orbital plane
View from above satellite
View from above satellite

Ground track
Ground track

The orbit data is extracted from the following two-line orbital elements,

1 01244U 65016B   18113.19175010 -.00000028  00000-0  17587-4 0  9990
2 01244  70.0809  44.0943 0019227  36.7642 323.4779 13.95606780703101
Epoch (UTC): 23 April 2018 04:36:07
Eccentricity: 0.0019227
inclination: 70.0809°
perigee height: 895 km
apogee height: 923 km
right ascension of ascending node: 44.0943°
argument of perigee: 36.7642°
revolutions per day: 13.95606780
mean anomaly at epoch: 323.4779°
orbit number at epoch: 70310

The dashed part of the orbit path shows where the satellite is in the earth's shadow,  

DLR